Meteo pe oră la Abakan

Astăzi, 26 Iulie, Luni

Timp Temperatura Precipitaţii Vânt Presiune Umiditate
00:00 +21°C° 0 mm 1 m/s 731 mmHg 82%
01:00 +20°C° 0 mm 1 m/s 731 mmHg 83%
02:00 +20°C° 0 mm 1 m/s 731 mmHg 85%
03:00 +20°C° 0 mm 1 m/s 731 mmHg 87%
04:00 +20°C° 0 mm 1 m/s 731 mmHg 85%
05:00 +21°C° 0 mm 1 m/s 731 mmHg 82%
06:00 +21°C° 0 mm 1 m/s 731 mmHg 80%
07:00 +23°C° 0 mm 1 m/s 731 mmHg 75%
08:00 +24°C° 0 mm 2 m/s 731 mmHg 70%
09:00 +25°C° 0 mm 2 m/s 731 mmHg 65%
10:00 +26°C° 0 mm 2 m/s 730 mmHg 60%
11:00 +28°C° 0 mm 2 m/s 730 mmHg 56%
12:00 +29°C° 0 mm 3 m/s 730 mmHg 52%
13:00 +30°C° 0 mm 2 m/s 730 mmHg 50%
14:00 +30°C° 0 mm 2 m/s 729 mmHg 47%
15:00 +31°C° 0 mm 2 m/s 729 mmHg 45%
16:00 +30°C° 0 mm 3 m/s 729 mmHg 51%
17:00 +29°C° 0 mm 3 m/s 729 mmHg 56%
18:00 +28°C° 0 mm 4 m/s 729 mmHg 61%
19:00 +27°C° 0 mm 3 m/s 729 mmHg 66%
20:00 +25°C° 0 mm 2 m/s 728 mmHg 70%
21:00 +24°C° 0 mm 2 m/s 728 mmHg 74%
22:00 +23°C° 0 mm 1 m/s 728 mmHg 76%
23:00 +22°C° 0 mm 1 m/s 728 mmHg 78%

Mâine, 27 Iulie, Marţi

Timp Temperatura Precipitaţii Vânt Presiune Umiditate
00:00 +22°C° 0 mm 1 m/s 728 mmHg 81%
01:00 +21°C° 0 mm 1 m/s 729 mmHg 82%
02:00 +21°C° 0 mm 1 m/s 729 mmHg 83%
03:00 +20°C° 0 mm 1 m/s 729 mmHg 83%
04:00 +21°C° 0.4 mm 1 m/s 729 mmHg 83%
05:00 +21°C° 0.4 mm 1 m/s 729 mmHg 82%
06:00 +22°C° 0.4 mm 1 m/s 730 mmHg 81%
07:00 +21°C° 0 mm 2 m/s 730 mmHg 78%
08:00 +23°C° 0 mm 2 m/s 730 mmHg 74%
09:00 +24°C° 0 mm 3 m/s 730 mmHg 70%
10:00 +25°C° 0.2 mm 3 m/s 730 mmHg 66%
11:00 +26°C° 0.2 mm 3 m/s 730 mmHg 61%
12:00 +28°C° 0.2 mm 4 m/s 730 mmHg 56%
13:00 +27°C° 0.4 mm 3 m/s 730 mmHg 58%
14:00 +27°C° 0.4 mm 3 m/s 730 mmHg 60%
15:00 +26°C° 0.4 mm 3 m/s 730 mmHg 61%
16:00 +26°C° 0.6 mm 3 m/s 730 mmHg 65%
17:00 +25°C° 0.6 mm 3 m/s 730 mmHg 68%
18:00 +24°C° 0.6 mm 3 m/s 730 mmHg 71%
19:00 +22°C° 0.4 mm 4 m/s 731 mmHg 75%
20:00 +21°C° 0.4 mm 4 m/s 731 mmHg 79%
21:00 +19°C° 0.4 mm 4 m/s 732 mmHg 83%
22:00 +17°C° 0.1 mm 5 m/s 732 mmHg 81%
23:00 +16°C° 0.1 mm 5 m/s 732 mmHg 78%

Poimâine, 28 Iulie, Miercuri

Timp Temperatura Precipitaţii Vânt Presiune Umiditate
00:00 +15°C° 0.1 mm 5 m/s 733 mmHg 75%
01:00 +15°C° 0 mm 5 m/s 733 mmHg 74%
02:00 +14°C° 0 mm 4 m/s 733 mmHg 73%
03:00 +14°C° 0 mm 3 m/s 733 mmHg 72%
04:00 +14°C° 0 mm 3 m/s 733 mmHg 73%
05:00 +14°C° 0 mm 3 m/s 733 mmHg 73%
06:00 +14°C° 0 mm 3 m/s 734 mmHg 74%
07:00 +14°C° 0 mm 3 m/s 734 mmHg 73%
08:00 +15°C° 0 mm 4 m/s 734 mmHg 71%
09:00 +15°C° 0 mm 4 m/s 734 mmHg 69%
10:00 +16°C° 0.1 mm 3 m/s 734 mmHg 69%
11:00 +16°C° 0.1 mm 3 m/s 734 mmHg 69%
12:00 +17°C° 0.1 mm 2 m/s 734 mmHg 69%
13:00 +16°C° 0.1 mm 2 m/s 735 mmHg 72%
14:00 +16°C° 0.1 mm 2 m/s 735 mmHg 74%
15:00 +16°C° 0.1 mm 2 m/s 735 mmHg 77%
16:00 +16°C° 0 mm 2 m/s 735 mmHg 77%
17:00 +16°C° 0 mm 2 m/s 735 mmHg 77%
18:00 +16°C° 0 mm 2 m/s 735 mmHg 76%
19:00 +15°C° 0 mm 2 m/s 735 mmHg 80%
20:00 +14°C° 0 mm 1 m/s 735 mmHg 83%
21:00 +13°C° 0 mm 1 m/s 735 mmHg 87%
22:00 +13°C° 0 mm 1 m/s 735 mmHg 85%
23:00 +14°C° 0 mm 1 m/s 735 mmHg 83%

29 Iulie, Joi

Timp Temperatura Precipitaţii Vânt Presiune Umiditate
00:00 +14°C° 0 mm 1 m/s 735 mmHg 82%
01:00 +14°C° 0 mm 1 m/s 735 mmHg 82%
02:00 +14°C° 0 mm 1 m/s 735 mmHg 82%
03:00 +14°C° 0 mm 1 m/s 735 mmHg 82%
04:00 +14°C° 0 mm 1 m/s 736 mmHg 82%
05:00 +14°C° 0 mm 1 m/s 736 mmHg 81%
06:00 +14°C° 0 mm 1 m/s 736 mmHg 80%
07:00 +15°C° 0 mm 1 m/s 736 mmHg 75%
08:00 +18°C° 0 mm 1 m/s 736 mmHg 70%
09:00 +19°C° 0 mm 1 m/s 736 mmHg 65%
10:00 +20°C° 0 mm 1 m/s 736 mmHg 60%
11:00 +22°C° 0 mm 1 m/s 735 mmHg 55%
12:00 +23°C° 0 mm 1 m/s 735 mmHg 50%
13:00 +23°C° 0 mm 1 m/s 735 mmHg 49%
14:00 +24°C° 0 mm 2 m/s 735 mmHg 47%
15:00 +24°C° 0 mm 2 m/s 735 mmHg 46%
16:00 +24°C° 0 mm 2 m/s 735 mmHg 50%
17:00 +23°C° 0 mm 2 m/s 735 mmHg 54%
18:00 +21°C° 0 mm 3 m/s 735 mmHg 59%
19:00 +20°C° 0 mm 2 m/s 735 mmHg 64%
20:00 +18°C° 0 mm 2 m/s 735 mmHg 68%
21:00 +16°C° 0 mm 1 m/s 735 mmHg 73%
22:00 +16°C° 0 mm 1 m/s 735 mmHg 75%
23:00 +15°C° 0 mm 1 m/s 735 mmHg 77%

30 Iulie, Vineri

Timp Temperatura Precipitaţii Vânt Presiune Umiditate
00:00 +15°C° 0 mm 1 m/s 735 mmHg 78%
01:00 +14°C° 0 mm 1 m/s 735 mmHg 79%
02:00 +14°C° 0 mm 1 m/s 735 mmHg 80%
03:00 +14°C° 0 mm 1 m/s 734 mmHg 81%
04:00 +14°C° 0 mm 1 m/s 735 mmHg 79%
05:00 +15°C° 0 mm 1 m/s 735 mmHg 77%
06:00 +14°C° 0 mm 0 m/s 735 mmHg 75%
07:00 +16°C° 0 mm 0 m/s 735 mmHg 71%
08:00 +17°C° 0 mm 0 m/s 735 mmHg 66%
09:00 +18°C° 0 mm 0 m/s 736 mmHg 62%
10:00 +19°C° 0 mm 0 m/s 736 mmHg 59%
11:00 +22°C° 0 mm 1 m/s 736 mmHg 56%
12:00 +23°C° 0 mm 1 m/s 736 mmHg 53%
13:00 +23°C° 0 mm 1 m/s 736 mmHg 51%
14:00 +24°C° 0 mm 1 m/s 736 mmHg 49%
15:00 +25°C° 0 mm 1 m/s 736 mmHg 48%
16:00 +24°C° 0 mm 1 m/s 736 mmHg 50%
17:00 +24°C° 0 mm 1 m/s 736 mmHg 52%
18:00 +24°C° 0 mm 1 m/s 736 mmHg 54%
19:00 +22°C° 0.1 mm 1 m/s 737 mmHg 61%
20:00 +20°C° 0.1 mm 1 m/s 737 mmHg 68%
21:00 +17°C° 0.1 mm 0 m/s 737 mmHg 75%
22:00 +16°C° 0.1 mm 0 m/s 737 mmHg 77%
23:00 +16°C° 0.1 mm 0 m/s 738 mmHg 78%

31 Iulie, Sâmbătă

Timp Temperatura Precipitaţii Vânt Presiune Umiditate
00:00 +15°C° 0.1 mm 0 m/s 738 mmHg 79%
01:00 +15°C° 0 mm 0 m/s 738 mmHg 81%
02:00 +14°C° 0 mm 0 m/s 738 mmHg 82%
03:00 +14°C° 0 mm 0 m/s 738 mmHg 84%
04:00 +14°C° 0 mm 0 m/s 738 mmHg 82%
05:00 +15°C° 0 mm 0 m/s 739 mmHg 81%
06:00 +15°C° 0 mm 0 m/s 739 mmHg 79%
07:00 +17°C° 0 mm 0 m/s 739 mmHg 75%
08:00 +20°C° 0 mm 1 m/s 739 mmHg 70%
09:00 +22°C° 0 mm 1 m/s 739 mmHg 66%
10:00 +23°C° 0 mm 1 m/s 739 mmHg 61%
11:00 +24°C° 0 mm 1 m/s 738 mmHg 56%
12:00 +25°C° 0 mm 1 m/s 738 mmHg 51%
13:00 +26°C° 0 mm 1 m/s 738 mmHg 47%
14:00 +26°C° 0 mm 1 m/s 738 mmHg 44%
15:00 +27°C° 0 mm 1 m/s 737 mmHg 40%
16:00 +26°C° 0 mm 2 m/s 737 mmHg 44%
17:00 +26°C° 0 mm 2 m/s 737 mmHg 49%
18:00 +25°C° 0 mm 2 m/s 737 mmHg 53%
19:00 +23°C° 0 mm 2 m/s 737 mmHg 59%
20:00 +20°C° 0 mm 2 m/s 737 mmHg 64%
21:00 +19°C° 0 mm 1 m/s 737 mmHg 70%
22:00 +19°C° 0 mm 1 m/s 737 mmHg 71%
23:00 +18°C° 0 mm 1 m/s 737 mmHg 72%
Arată mai mult

Formular de consimțământ

Meteoprog și furnizorii noștri de servicii pot stoca și accesa date personale, precum cookies, identificatori de dispozitiv sau alte tehnologii similare pe dispozitivul dumneavoastră și procesa astfel de date pentru a personaliza conținutul și reclamele, dar și pentru a oferi caracteristici de social media și pentru a analiza traficul.

  • Stocarea și/sau accesarea informațiilor pe dispozitivul dumneavoastră

    Cookies, identificatori de dispozitiv sau alte informații pot fi stocate sau accesate pe dispozitiv în scopurile indicate mai sus.

  • Reclame și conținut personalizat, evaluarea reclamelor și a conținutului, informații despre audiențe și dezvoltarea produselor

    Reclamele și conținutul pot fi personalizate pe baza unui profil. Pot fi adăugate date suplimentare pentru a personaliza mai bine reclamele și conținutul. Performanța reclamelor și conținutului poate fi măsurată. Pot fi obținute informații despre utilizatorii care au văzut reclamele și conținutul. Aceste date pot fi utilizate pentru a dezvolta sau îmbunătăți experiența utilizatorilor, sistemele și software-ul.

Dând clic pe ‘Sunt de acord’, permiteți utilizarea cookie-urilor menționate, a identificatorilor de dispozitiv, balizelor web sau altor tehnologii similare. Setările pot fi modificate din browser-ul dispozitivului dumneavoastră.

În anumite scopuri, interesele legitime pot prima asupra consimțământului. Puteți citi mai multe informații în acest sens în Politica privind Confidențialitatea Datelor și Cookie.